Location: Stony Creek
(40.9500°S, 175.8500°E)
Time: 09:03:42
(UTC+00:00)

ARIANE 5 R/B - Pass Details

Date: 15 May 2026
Orbit: 746 x 792 km, 98.8° (Epoch: 9 June)

Event Time Altitude Azimuth Distance (km) Brightness Sun altitude
Rises 18:33:19 0° 7° (N) 3,186 6.1 -8.6°
Reaches altitude 10° 18:35:37 10° 4° (N) 2,268 5.2 -8.2°
Maximum altitude 18:40:34 64° 282° (WNW) 838 2.5 -7.3°
Drops below altitude 10° 18:45:35 10° 200° (SSW) 2,299 4.6 -6.4°
Sets 18:47:56 0° 196° (SSW) 3,234 5.4 -6.0°
